Home   Weather   Mashhad   Past weeks

Flag for Iran Past Weather in Mashhad, Iran — Yesterday and Last 2 Weeks

Now
93 °F

Sunny.


Feels Like: 89 °F
Forecast: 75 / 99 °F
Wind: 9 mph from Northeast

Location: Mashhad Airport

Current Time: Jul 25, 2017 at 11:21:52 am

Latest Report: Jul 25, 2017 at 10:30 am


Visibility: 10 mi

Pressure: 29.83 "Hg (26.75 "Hg at 981m altitude)

Humidity: 13%

Dew Point: 36 °F

Location of MashhadLocation

Past Weather in Mashhad — Graph

°F

Mashhad Temperature Yesterday

Maximum temperature yesterday: 97 °F (at 3:30 pm)
Minimum temperature yesterday: 72 °F (at 5:00 am)
Average temperature yesterday: 86 °F

High & Low Weather Summary for the Past Weeks

 TemperatureHumidityPressure
High99 °F (Jul 10, 1:30 pm)73% (Jul 14, 4:30 am)30.09 "Hg (Jul 14, 4:30 am)
Low64 °F (Jul 17, 4:30 am)8% (Jul 21, 1:00 pm)29.80 "Hg (Jul 24, 12:30 pm)
Average81 °F24%29.94 "Hg
* Reported Jul 10 9:30 am — Jul 25 10:00 am, Mashhad. Weather by CustomWeather, © 2017

Note: Actual official high and low records may vary slightly from our data, if they occured in-between our weather recording intervals... More about our weather records

Advertising

Mashhad Weather History for the Previous 24 Hours

Scroll right to see more
 ConditionsComfort  
Time TempWeatherWind HumidityBarometerVisibility
10:00 am
Tue, Jul 25
93 °FSunny.9 mph12%29.83 "Hg10 mi
9:30 am91 °FSunny.9 mph14%29.83 "Hg10 mi
9:00 am91 °FSunny.9 mph15%29.83 "Hg10 mi
8:30 am91 °FSunny.5 mph16%29.83 "Hg10 mi
8:00 am88 °FClear.5 mph18%29.83 "Hg4 mi
7:30 am84 °FSunny.5 mph20%29.83 "Hg10 mi
7:00 am79 °FSunny.5 mph24%29.83 "Hg10 mi
6:30 am75 °FSunny.5 mph29%29.80 "Hg10 mi
6:00 am72 °FClear.5 mph33%29.80 "Hg10 mi
5:30 am75 °FClear.7 mph25%29.80 "Hg10 mi
5:00 am77 °FClear.7 mph24%29.80 "Hg10 mi
4:30 am77 °FClear.9 mph24%29.80 "Hg10 mi
4:00 am79 °FClear.9 mph21%29.80 "Hg10 mi
3:30 am79 °FClear.9 mph23%29.80 "Hg10 mi
3:00 am77 °FClear.9 mph24%29.80 "Hg10 mi
2:30 am79 °FClear.7 mph23%29.80 "Hg10 mi
2:00 am79 °FClear.7 mph23%29.80 "Hg10 mi
1:30 am81 °FClear.7 mph20%29.83 "Hg10 mi
1:00 am82 °FClear.5 mph17%29.83 "Hg10 mi
12:30 am82 °FClear.9 mph19%29.83 "Hg10 mi
12:00 am82 °FClear.7 mph19%29.83 "Hg10 mi
11:30 pm
Mon, Jul 24
81 °FClear.No wind20%29.83 "Hg10 mi
11:00 pm81 °FClear.5 mph20%29.83 "Hg10 mi
10:30 pm82 °FClear.5 mph19%29.83 "Hg10 mi
10:00 pm82 °FClear.5 mph16%29.83 "Hg10 mi
9:30 pm84 °FClear.7 mph15%29.83 "Hg10 mi
9:00 pm86 °FClear.12 mph14%29.83 "Hg10 mi
8:30 pm86 °FClear.16 mph15%29.83 "Hg10 mi
8:00 pm88 °FSunny.14 mph15%29.80 "Hg10 mi
7:30 pm90 °FSunny.14 mph14%29.80 "Hg10 mi
7:00 pm93 °FSunny.14 mph11%29.80 "Hg10 mi
6:30 pm93 °FSunny.14 mph11%29.80 "Hg10 mi
6:00 pm95 °FSunny.14 mph11%29.80 "Hg10 mi
5:30 pm95 °FSunny.16 mph11%29.80 "Hg10 mi
5:00 pm95 °FSunny.14 mph11%29.80 "Hg10 mi
4:30 pm97 °FSunny.12 mph10%29.80 "Hg10 mi
4:00 pm97 °FSunny.14 mph9%29.80 "Hg10 mi
3:30 pm97 °FSunny.16 mph9%29.80 "Hg10 mi
3:00 pm95 °FSunny.16 mph10%29.80 "Hg10 mi
2:30 pm95 °FSunny.14 mph11%29.80 "Hg10 mi
2:00 pm95 °FSunny.18 mph12%29.80 "Hg10 mi
1:30 pm95 °FSunny.18 mph11%29.80 "Hg10 mi
1:00 pm95 °FSunny.21 mph11%29.80 "Hg10 mi
12:30 pm95 °FSunny.14 mph11%29.80 "Hg10 mi
12:00 pm93 °FSunny.12 mph12%29.83 "Hg10 mi
11:30 am93 °FSunny.14 mph13%29.83 "Hg10 mi
11:00 am93 °FSunny.16 mph13%29.83 "Hg10 mi
Weather by CustomWeather, © 2017

See weather overviewHow to use our weather pages